User: anonymous   Login
Location: Laverne
(36.7100°N, 99.8930°W)
Time: 12:21:09
(UTC-05:00)
Language:

Iridium 32 - Orbit

View from above orbital plane
View from above orbital plane
View from above satellite
View from above satellite

Ground track
Ground track

The orbit data is extracted from the following two-line orbital elements,

1 24945U 97051B   15088.51035923  .00000294  00000-0  97744-4 0  9996
2 24945 086.3920 265.9462 0002057 095.4322 264.7109 14.34217904918223
Epoch (UTC): 29 March 2015 12:14:55
Eccentricity: 0.0002057
inclination: 86.3920°
perigee height: 776 km
apogee height: 779 km
right ascension of ascending node: 265.9462°
argument of perigee: 95.4322°
revolutions per day: 14.34217904
mean anomaly at epoch: 264.7109°
orbit number at epoch: 91822

The dashed part of the orbit path shows where the satellite is in the earth's shadow,  

DLR